HG8GL-6 Weather Reports


time (UTC)temp
C
wind
direction
speed
KPH
gust
KPH
rain 1hr
cm
rain 24hr
cm
rain mn
cm
humidity
%
barometer
mb
20260507085520 20 206 0.0 0.0 0.00 0.00 0.00 67 1014.1
20260507084520 20 192 0.0 0.0 0.00 0.00 0.00 72 1015.0
20260507083520 19 204 0.0 0.0 0.00 0.00 0.00 73 1014.0
20260507082450 18 157 0.0 0.0 0.00 0.00 0.00 73 1015.0
20260507081420 18 180 0.0 0.0 0.00 0.00 0.00 73 1015.0
20260507080420 18 192 0.0 0.0 0.00 0.00 0.00 73 1014.0
20260507075350 19 228 0.0 0.0 0.00 0.00 0.00 72 1014.0
20260507074350 19 195 0.0 0.0 0.00 0.00 0.00 74 1014.0
20260507073320 18 182 0.0 0.0 0.00 0.00 0.00 76 1014.0
20260507072320 18 168 0.0 0.0 0.00 0.00 0.00 79 1014.0
20260507071320 18 165 0.0 0.0 0.00 0.00 0.00 83 1014.0
20260507070320 18 204 0.0 0.0 0.00 0.00 0.00 85 1014.0
20260507065250 17 186 0.0 0.0 0.00 0.00 0.00 88 1014.0
20260507064220 17 191 0.0 0.0 0.00 0.00 0.00 88 1014.0
20260507063220 16 181 0.0 0.0 0.00 0.00 0.00 89 1014.0
20260507062220 16 173 0.0 0.0 0.00 0.00 0.00 89 1014.0
20260507061150 16 186 0.0 0.0 0.00 0.00 0.00 89 1014.0
20260507060150 16 155 0.0 0.0 0.00 0.00 0.00 88 1014.0
20260507055120 16 143 0.0 0.0 0.00 0.00 0.00 88 1013.0
20260507054050 16 154 0.0 0.0 0.00 0.00 0.00 88 1013.0
20260507053050 16 167 0.0 0.0 0.00 0.00 0.00 87 1013.0
20260507052050 16 158 0.0 0.0 0.00 0.00 0.00 86 1013.0
20260507051020 16 158 0.0 0.0 0.00 0.00 0.00 86 1013.0
20260507045950 16 157 0.0 0.0 0.00 0.00 0.00 86 1013.0
20260507044920 16 158 0.0 0.0 0.00 0.00 0.00 86 1013.0
20260507043850 16 152 0.0 0.0 0.00 0.00 0.00 85 1013.0
20260507042820 16 158 0.0 0.0 0.00 0.00 0.00 85 1013.0
20260507041750 16 158 0.0 0.0 0.00 0.00 0.00 85 1013.0
20260507040750 16 158 0.0 0.0 0.00 0.00 0.00 84 1012.0
20260507035720 16 158 0.0 0.0 0.00 0.00 0.00 83 1012.0
20260507034650 16 158 0.0 0.0 0.00 0.00 0.00 83 1012.0
20260507033649 16 158 0.0 0.0 0.00 0.00 0.00 83 1012.0
20260507032649 16 158 0.0 0.0 0.00 0.00 0.00 82 1012.0
20260507031649 16 217 0.0 0.0 0.00 0.00 0.00 82 1012.0
20260507030619 16 229 0.0 0.0 0.00 0.00 0.00 82 1012.0
20260507025619 16 207 0.0 0.0 0.00 0.00 0.00 82 1012.0
20260507024549 16 241 0.0 0.0 0.00 0.00 0.00 83 1012.0
20260507023549 16 221 0.0 0.0 0.00 0.00 0.00 83 1012.0
20260507022549 16 181 0.0 0.0 0.00 0.00 0.00 83 1012.0
20260507021549 16 222 0.0 0.0 0.00 0.00 0.00 83 1012.0
20260507020449 16 220 0.0 0.0 0.00 0.00 0.00 83 1012.0
20260507015449 16 208 0.0 0.0 0.00 0.00 0.00 83 1012.0
20260507014449 16 235 0.0 0.0 0.00 0.00 0.00 83 1012.0
20260507013419 17 234 0.0 0.0 0.00 0.00 0.00 82 1012.0
20260507012349 17 258 0.0 0.0 0.00 0.00 0.00 81 1012.0
20260507011319 17 259 0.0 0.0 0.00 0.00 0.00 80 1012.0
20260507010319 17 288 0.0 0.0 0.00 0.00 0.00 79 1011.0
20260507005319 17 298 0.0 0.0 0.00 0.00 0.00 80 1011.0
20260507004249 17 274 0.0 0.0 0.00 0.00 0.00 80 1011.0
20260507003249 17 275 0.0 0.0 0.00 0.00 0.00 76 1012.0
20260507002219 17 300 0.0 0.0 0.00 0.00 0.00 75 1012.0
20260507001149 18 264 0.0 0.0 0.00 0.00 0.00 74 1012.0
20260507000149 18 275 0.0 0.0 0.00 0.00 0.00 72 1011.0
20260506235119 18 294 0.0 0.0 0.00 0.00 0.00 71 1012.0
20260506234119 18 281 0.0 0.0 0.00 0.00 0.00 71 1012.0
20260506233119 18 272 0.0 0.0 0.00 0.00 0.00 71 1012.0
20260506232049 18 281 0.0 0.0 0.00 0.00 0.00 71 1012.0
20260506231049 18 252 0.0 0.0 0.00 0.00 0.00 70 1012.0
20260506230049 18 259 0.0 0.0 0.00 0.00 0.00 69 1012.0
20260506225019 18 254 0.0 0.0 0.00 0.00 0.00 68 1012.0
20260506223949 18 251 0.0 0.0 0.00 0.00 0.00 67 1012.0
20260506222919 18 261 0.0 0.0 0.00 0.00 0.00 65 1012.0
20260506221919 18 246 0.0 0.0 0.00 0.00 0.00 63 1012.0
20260506220919 18 257 0.0 0.0 0.00 0.00 0.00 64 1012.0
20260506215849 18 245 0.0 0.0 0.00 0.00 0.00 63 1012.0
20260506214849 18 253 0.0 0.0 0.00 0.00 0.00 62 1011.0
20260506213819 18 289 0.0 0.0 0.00 0.00 0.00 60 1011.0
20260506212749 18 273 0.0 0.0 0.00 0.00 0.00 59 1011.0
20260506211749 19 269 0.0 0.0 0.00 0.00 0.00 57 1011.0
20260506210719 19 280 0.0 0.0 0.00 0.00 0.00 57 1011.0
20260506205649 19 280 0.0 0.0 0.00 0.00 0.00 56 1011.0
20260506204649 19 281 0.0 0.0 0.00 0.00 0.00 56 1010.0
20260506203649 19 277 0.0 0.0 0.00 0.00 0.00 55 1011.0
20260506202619 19 290 0.0 0.0 0.00 0.00 0.00 54 1011.0
20260506201549 18 260 0.0 0.0 0.00 0.00 0.00 56 1011.0
20260506200549 17 275 0.0 0.0 0.00 0.00 0.00 56 1010.0
20260506195549 17 165 0.0 0.0 0.00 0.00 0.00 52 1010.2
20260506194548 17 158 0.0 0.0 0.00 0.00 0.00 51 1011.0
20260506193549 17 135 0.0 0.0 0.00 0.00 0.00 50 1010.0
20260506192548 18 135 0.0 0.0 0.00 0.00 0.00 49 1010.0
20260506191548 18 158 0.0 0.0 0.00 0.00 0.00 49 1010.0
20260506190518 18 158 0.0 0.0 0.00 0.00 0.00 48 1011.0
20260506185518 18 131 0.0 0.0 0.00 0.00 0.00 48 1010.8
20260506184448 19 22 0.0 0.0 0.00 0.00 0.00 46 1010.0
20260506183448 19 22 0.0 0.0 0.00 0.00 0.00 45 1010.0
20260506182448 20 22 0.0 0.0 0.00 0.00 0.00 43 1010.0
20260506181418 20 22 0.0 0.0 0.00 0.00 0.00 42 1010.0
20260506180348 21 22 0.0 0.0 0.00 0.00 0.00 41 1010.0
20260506175348 21 22 0.0 0.0 0.00 0.00 0.00 39 1010.0
20260506174318 22 22 0.0 0.0 0.00 0.00 0.00 38 1010.0
20260506173248 23 22 0.0 0.0 0.00 0.00 0.00 37 1010.0
20260506172248 23 248 0.0 0.0 0.00 0.00 0.00 36 1010.0
20260506171218 23 248 0.0 0.0 0.00 0.00 0.00 35 1010.0
20260506170148 24 244 0.0 0.0 0.00 0.00 0.00 34 1010.0
20260506165118 24 228 0.0 0.0 0.00 0.00 0.00 34 1010.0
20260506164118 25 234 0.0 0.0 0.00 0.00 0.00 34 1010.0
20260506163118 25 225 0.0 0.0 0.00 0.00 0.00 34 1010.0
20260506162048 25 221 0.0 0.0 0.00 0.00 0.00 33 1010.0
20260506161048 25 186 0.0 0.0 0.00 0.00 0.00 33 1010.0
20260506160048 25 184 0.0 0.0 0.00 0.00 0.00 33 1010.0
20260506155018 25 192 0.0 0.0 0.00 0.00 0.00 33 1010.0
20260506154018 25 233 0.0 0.0 0.00 0.00 0.00 33 1010.0
20260506153018 25 178 0.0 0.0 0.00 0.00 0.00 33 1010.0
20260506151948 26 184 0.0 0.0 0.00 0.00 0.00 33 1009.0
20260506150918 26 196 0.0 0.0 0.00 0.00 0.00 32 1010.0
20260506145918 26 231 0.0 0.0 0.00 0.00 0.00 32 1010.0
20260506144848 26 214 0.0 0.0 0.00 0.00 0.00 32 1010.0
20260506143818 26 150 0.0 0.0 0.00 0.00 0.00 32 1010.0
20260506142748 27 212 0.0 0.0 0.00 0.00 0.00 32 1010.0
20260506141748 27 244 0.0 0.0 0.00 0.00 0.00 32 1010.0
20260506140718 27 228 0.0 0.0 0.00 0.00 0.00 32 1010.0
20260506135718 27 201 0.0 0.0 0.00 0.00 0.00 32 1010.0
20260506134648 27 249 0.0 0.0 0.00 0.00 0.00 33 1010.0
20260506133648 27 189 0.0 0.0 0.00 0.00 0.00 33 1010.0
20260506132618 26 235 0.0 0.0 0.00 0.00 0.00 33 1010.0
20260506131618 26 204 0.0 0.0 0.00 0.00 0.00 33 1010.0
20260506130618 26 148 0.0 0.0 0.00 0.00 0.00 33 1011.0
20260506125548 26 231 0.0 0.0 0.00 0.00 0.00 33 1011.2
20260506124548 26 203 0.0 0.0 0.00 0.00 0.00 34 1012.0
20260506123518 26 235 0.0 0.0 0.00 0.00 0.00 34 1012.0
20260506122448 26 181 0.0 0.0 0.00 0.00 0.00 33 1011.0
20260506121448 26 232 0.0 0.0 0.00 0.00 0.00 34 1011.0
20260506120417 26 162 0.0 0.0 0.00 0.00 0.00 34 1012.0
20260506115417 26 192 0.0 0.0 0.00 0.00 0.00 34 1012.0
20260506114417 26 221 0.0 0.0 0.00 0.00 0.00 35 1012.0
20260506113347 26 162 0.0 0.0 0.00 0.00 0.00 35 1012.0
20260506112317 26 188 0.0 0.0 0.00 0.00 0.00 35 1012.0
20260506111247 25 193 0.0 0.0 0.00 0.00 0.00 36 1012.0
20260506110247 25 187 0.0 0.0 0.00 0.00 0.00 37 1012.0
20260506105217 25 184 0.0 0.0 0.00 0.00 0.00 38 1013.0
20260506104147 24 217 0.0 0.0 0.00 0.00 0.00 38 1013.0
20260506103147 24 158 0.0 0.0 0.00 0.00 0.00 38 1012.0
20260506102117 23 173 0.0 0.0 0.00 0.00 0.00 39 1012.0
20260506101047 23 237 0.0 0.0 0.00 0.00 0.00 38 1012.0
20260506100047 24 198 0.0 0.0 0.00 0.00 0.00 38 1012.0
20260506095017 24 182 0.0 0.0 0.00 0.00 0.00 39 1012.0
20260506094017 25 162 0.0 0.0 0.00 0.00 0.00 39 1012.2
20260506092947 24 181 0.0 0.0 0.00 0.00 0.00 39 1013.0
20260506091917 24 189 0.0 0.0 0.00 0.00 0.00 40 1012.0
20260506090847 23 175 0.0 0.0 0.00 0.00 0.00 41 1012.0
20260506085817 23 154 0.0 0.0 0.00 0.00 0.00 42 1012.0